Regional Weather Roundup
Issued by NWS

Home | Current Version | Previous Version | Graphics & Text | Print | Product List | Glossary On
Versions: 1 2 3 4 5 6 7 8 9 10 11 12 13 14 15 16 17 18 19 20 21 22 23 24 25 26 27 28 29 30 31 32 33 34 35 36 37 38 39 40 41 42 43 44 45 46 47 48 49 50
792
ASUS43 KTOP 220608
RWRKS

WEATHER ROUNDUP FOR KANSAS
NATIONAL WEATHER SERVICE GOODLAND KS
100 AM CDT FRI MAY 22 2015

NOTE:  "FAIR" INDICATES FEW OR NO CLOUDS BELOW 12,000 FEET WITH NO
SIGNIFICANT WEATHER AND/OR OBSTRUCTIONS TO VISIBILITY.

KSZ001>006-013>018-027>032-041>047-220700-
NORTHWEST KANSAS

CITY           SKY/WX    TMP DP  RH WIND       PRES   REMARKS
GOODLAND       CLOUDY    50  44  80 SE9       30.19F
6HR MIN TEMP:  50; 6HR MAX TEMP:  55;

HAYS           MOCLDY    48  39  71 E6        30.21S
HILL CITY      MOCLDY    48  43  82 E3        30.21F
6HR MIN TEMP:  47; 6HR MAX TEMP:  61; 6HR PCP: TRACE;

RUSSELL        MOCLDY    50  45  83 SE7       30.20F
6HR MIN TEMP:  49; 6HR MAX TEMP:  63;

$$

KSZ061>065-074>080-084>089-220700-
SOUTHWEST KANSAS

CITY           SKY/WX    TMP DP  RH WIND       PRES   REMARKS
DODGE CITY     CLOUDY    53  45  74 SE8       30.19F
6HR MIN TEMP:  53; 6HR MAX TEMP:  59;

ELKHART          N/A     49  47  93 SE6         N/A
GARDEN CITY    CLOUDY    51  48  89 E7        30.17F
6HR MIN TEMP:  51; 6HR MAX TEMP:  57; 6HR PCP:  0.06;

GREAT BEND     CLOUDY    52  45  76 E6        30.20S
LIBERAL        CLOUDY    52  45  76 SE13      30.20S
PRATT          CLOUDY    52  45  76 E6        30.21F
$$

KSZ066>073-081>083-090>101-220700-
SOUTHEAST KANSAS

CITY           SKY/WX    TMP DP  RH WIND       PRES   REMARKS
CHANUTE        CLEAR     48  46  93 CALM      30.23F
6HR MIN TEMP:  47; 6HR MAX TEMP:  64;

COFFEYVILLE    CLEAR     49  47  93 CALM      30.22F
6HR MIN TEMP:  48; 6HR MAX TEMP:  63;

HUTCHINSON     MOCLDY    50  45  83 E5        30.21F
6HR MIN TEMP:  49; 6HR MAX TEMP:  63;

MEDICINE LODGE   N/A     54  48  80 E6        30.18F
NEWTON         PTCLDY    50  43  76 E5        30.22F
PARSONS        CLEAR     48  48 100 NE3       30.24F
6HR MIN TEMP:  48; 6HR MAX TEMP:  64;

WICHITA INTL   MOCLDY    53  46  77 E5        30.20F
6HR MIN TEMP:  53; 6HR MAX TEMP:  64;

WICHITA JABRA  MOCLDY    49  46  90 E5        30.21F
6HR MIN TEMP:  48; 6HR MAX TEMP:  63;

WICHITA MCCONL MOCLDY    53  46  77 E6        30.21F
WINFIELD       PTCLDY    52  47  83 E5        30.21F
6HR MIN TEMP:  50; 6HR MAX TEMP:  63;

$$

KSZ007>012-019>026-033>040-048>060-102>105-220700-
NORTHEAST KANSAS

CITY           SKY/WX    TMP DP  RH WIND       PRES   REMARKS
CONCORDIA      MOCLDY    51  42  71 CALM      30.22F
6HR MIN TEMP:  50; 6HR MAX TEMP:  64;

EMPORIA        CLEAR     50  44  80 CALM      30.23F
6HR MIN TEMP:  49; 6HR MAX TEMP:  63;

LAWRENCE       PTCLDY    49  47  93 CALM      30.24R
6HR MIN TEMP:  48; 6HR MAX TEMP:  68;

MANHATTAN      PTCLDY    49  46  90 CALM      30.24S
6HR MIN TEMP:  48; 6HR MAX TEMP:  67;

MARYSVILLE     MOCLDY    50  46  87 S3        30.23F
OLATHE IND     CLEAR     53  46  77 SW7       30.25R
6HR MIN TEMP:  52; 6HR MAX TEMP:  65;

OLATHE EXE     CLEAR     54  46  74 SW5       30.23R
6HR MIN TEMP:  53; 6HR MAX TEMP:  66;

SALINA         CLEAR     52  45  77 SE3       30.22F
6HR MIN TEMP:  51; 6HR MAX TEMP:  65;

TOPEKA BILLARD PTCLDY    52  49  89 CALM      30.24S
6HR MIN TEMP:  52; 6HR MAX TEMP:  68;

TOPEKA FORBES  PTCLDY    53  46  77 CALM      30.23S
6HR MIN TEMP:  53; 6HR MAX TEMP:  67;

$$



USA.gov is the U.S. government's official web portal to all federal, state and local government web resources and services.